Weather in Vorsma

Russia / Nizhny Novgorod Oblast'     55°59′23″N   43°16′19″E
temp.,
°C
wind,
m/s
gust,
m/s
humid.,
%
clouds,
%
prec.,
mm/h
press.,
hPa
HPBL,
m
11 april, sun
sun1100:00−1s22914 0.0 102711
03:00−1ssw11845 0.0 102810
06:000ssw11810 0.0 102910
09:00+5ssw22652 0.0 1030212
12:00+9wsw225262 0.0 1031580
15:00+11ssw0151100 0.0 1031738
18:00+8e2267100 0.0 103211
21:00+4se3378100 0.0 103424
12 april, mon
mon1200:00+3ese2279100 0.0 103516
03:00+3e348398 0.0 103551
06:00+2e41087100 0.0 1035180
09:00+7e6116695 0.0 1035463
12:00+5e61271100 0.0 1035432
15:00+9e71065100 0.0 1033492
18:00+7e51088100 0.0 1032408
21:00+6e51097100 0.0 1031242
13 april, tue
tue1300:00+6ese3996100 0.0 1030159
03:00+7se4992100 0.0 1029131
06:00+6sse499057 0.0 1029134
09:00+13s696583 0.0 1028342
12:00+17s685069 0.0 1027847
15:00+19s674062 0.0 10251462
18:00+15sse485059 0.0 1024159
21:00+11sse49655 0.0 1025127
14 april, wed
wed1400:00+9s497327 0.0 1024142
03:00+8s410775 0.0 1024157
06:00+8s4117557 0.0 1023176
09:00+13s51058100 0.0 1023343
12:00+18s6841100 0.0 1022732
15:00+20s673586 0.0 10211414
18:00+16sse4850100 0.0 1020159
21:00+12s496193 0.0 1020130
15 april, thu
thu1500:00+10s476876 0.0 101988
03:00+9ssw3569100 0.0 101872
06:00+9ssw337082 0.0 101845
09:00+13ssw345691 0.0 1017240
12:00+14wsw235998 0.0 1016321
15:00+16nnw3361100 0.1 10151012
18:00+7n5893100 2.6 1015280
21:00+6n5993100 8.4 1015600